TimeMDT,TemperatureF,Dew PointF,Humidity,Sea Level PressureIn,VisibilityMPH,Wind Direction,Wind SpeedMPH,Gust SpeedMPH,PrecipitationIn,Events,Conditions,WindDirDegrees,DateUTC
12:53 AM,46.0,28.0,50,30.02,10.0,Calm,Calm,-,N/A,,Clear,0,2013-09-24 06:53:00
1:53 AM,44.1,28.9,55,30.02,10.0,Calm,Calm,-,N/A,,Clear,0,2013-09-24 07:53:00
2:53 AM,37.9,28.0,68,30.03,10.0,Calm,Calm,-,N/A,,Clear,0,2013-09-24 08:53:00
3:53 AM,44.1,26.1,49,30.00,10.0,Calm,Calm,-,N/A,,Clear,0,2013-09-24 09:53:00
4:53 AM,41.0,28.9,62,30.00,10.0,ESE,3.5,-,N/A,,Clear,110,2013-09-24 10:53:00
5:53 AM,36.0,25.0,64,30.02,10.0,Calm,Calm,-,N/A,,Clear,0,2013-09-24 11:53:00
6:53 AM,39.0,25.0,57,30.02,10.0,Calm,Calm,-,N/A,,Clear,0,2013-09-24 12:53:00
7:53 AM,41.0,27.0,57,30.04,10.0,Variable,3.5,-,N/A,,Clear,0,2013-09-24 13:53:00
8:53 AM,52.0,30.9,45,30.02,10.0,Calm,Calm,-,N/A,,Clear,0,2013-09-24 14:53:00
9:53 AM,60.1,33.1,36,30.00,10.0,ENE,3.5,-,N/A,,Clear,70,2013-09-24 15:53:00
10:53 AM,66.0,33.1,29,29.98,10.0,SSW,10.4,16.1,N/A,,Clear,210,2013-09-24 16:53:00
11:53 AM,72.0,30.9,22,29.94,10.0,SSW,12.7,23.0,N/A,,Clear,210,2013-09-24 17:53:00
12:53 PM,73.0,28.0,19,29.93,10.0,SW,20.7,29.9,N/A,,Clear,220,2013-09-24 18:53:00
1:53 PM,73.9,28.0,18,29.91,10.0,SSW,19.6,28.8,N/A,,Clear,210,2013-09-24 19:53:00
2:53 PM,73.9,28.0,18,29.89,10.0,SSW,19.6,29.9,N/A,,Clear,210,2013-09-24 20:53:00
3:53 PM,73.9,28.9,19,29.85,10.0,SW,16.1,28.8,N/A,,Clear,220,2013-09-24 21:53:00
4:53 PM,73.9,30.0,20,29.83,10.0,SW,19.6,29.9,N/A,,Clear,220,2013-09-24 22:53:00
5:53 PM,72.0,27.0,19,29.83,10.0,SSW,17.3,29.9,N/A,,Clear,210,2013-09-24 23:53:00
6:53 PM,69.1,27.0,21,29.81,10.0,SSW,18.4,28.8,N/A,,Clear,210,2013-09-25 00:53:00
7:53 PM,66.0,25.0,21,29.80,10.0,South,15.0,23.0,N/A,,Clear,180,2013-09-25 01:53:00
8:53 PM,64.9,24.1,21,29.79,10.0,SSW,13.8,21.9,N/A,,Clear,210,2013-09-25 02:53:00
9:53 PM,59.0,27.0,29,29.78,10.0,SW,6.9,-,N/A,,Clear,220,2013-09-25 03:53:00
10:53 PM,57.9,26.1,30,29.74,10.0,SSW,10.4,-,N/A,,Clear,210,2013-09-25 04:53:00
11:53 PM,57.9,26.1,30,29.72,10.0,SW,9.2,-,N/A,,Clear,220,2013-09-25 05:53:00